owner,sensor,date,latitude,longitude,air_temperature,qcFlag 
TABS,ioos:station:wmo:42047:1,2003-04-01T00:09:00Z,27.8966,-93.5973,20.5,11144222 
TABS,ioos:station:wmo:42047:1,2003-04-01T00:39:00Z,27.8966,-93.5973,20.5,11144222 
TABS,ioos:station:wmo:42047:1,2003-04-01T01:39:00Z,27.8966,-93.5973,20.5,11144222 
TABS,ioos:station:wmo:42047:1,2003-04-01T02:09:00Z,27.8966,-93.5973,20.5,11144222 
TABS,ioos:station:wmo:42047:1,2003-04-01T04:09:00Z,27.8966,-93.5973,20.9,11144222 
TABS,ioos:station:wmo:42047:1,2003-04-01T04:39:00Z,27.8966,-93.5973,20.9,11144222 
TABS,ioos:station:wmo:42047:1,2003-04-01T06:09:00Z,27.8966,-93.5973,20.9,11144222 
TABS,ioos:station:wmo:42047:1,2003-04-01T07:39:00Z,27.8966,-93.5973,20.9,11144222 
TABS,ioos:station:wmo:42047:1,2003-04-01T08:09:00Z,27.8966,-93.5973,20.9,11144222 
TABS,ioos:station:wmo:42047:1,2003-04-01T08:39:00Z,27.8966,-93.5973,20.9,11144222 
TABS,ioos:station:wmo:42047:1,2003-04-01T09:09:00Z,27.8966,-93.5973,20.9,11144222 
TABS,ioos:station:wmo:42047:1,2003-04-01T10:09:00Z,27.8966,-93.5973,20.9,11144222 
TABS,ioos:station:wmo:42047:1,2003-04-01T12:39:00Z,27.8966,-93.5973,20.8,11144222 
TABS,ioos:station:wmo:42047:1,2003-04-01T14:09:00Z,27.8966,-93.5973,21.0,11144222 
TABS,ioos:station:wmo:42047:1,2003-04-01T16:09:00Z,27.8966,-93.5973,21.2,11144222 
TABS,ioos:station:wmo:42047:1,2003-04-01T20:09:00Z,27.8966,-93.5973,22.0,11144222 
TABS,ioos:station:wmo:42047:1,2003-04-01T20:39:00Z,27.8966,-93.5973,22.1,11144222 
TABS,ioos:station:wmo:42047:1,2003-04-02T00:39:00Z,27.8966,-93.5973,22.5,11144222 
TABS,ioos:station:wmo:42047:1,2003-04-02T02:39:00Z,27.8966,-93.5973,22.8,11144222 
TABS,ioos:station:wmo:42047:1,2003-04-02T05:09:00Z,27.8966,-93.5973,22.9,11144222 
TABS,ioos:station:wmo:42047:1,2003-04-02T06:09:00Z,27.8966,-93.5973,23.1,11144222 
TABS,ioos:station:wmo:42047:1,2003-04-02T09:39:00Z,27.8966,-93.5973,23.1,11144222 
TABS,ioos:station:wmo:42047:1,2003-04-02T10:39:00Z,27.8966,-93.5973,23.4,11144222 
TABS,ioos:station:wmo:42047:1,2003-04-02T17:09:00Z,27.8966,-93.5973,23.7,11144222 
TABS,ioos:station:wmo:42047:1,2003-04-02T17:39:00Z,27.8966,-93.5973,23.7,11144222 
TABS,ioos:station:wmo:42047:1,2003-04-02T19:09:00Z,27.8966,-93.5973,23.8,11144222 
TABS,ioos:station:wmo:42047:1,2003-04-02T20:09:00Z,27.8966,-93.5973,23.8,11144222 
TABS,ioos:station:wmo:42047:1,2003-04-02T20:39:00Z,27.8966,-93.5973,23.9,11144222 
TABS,ioos:station:wmo:42047:1,2003-04-02T21:39:00Z,27.8966,-93.5973,24.1,11144222 
TABS,ioos:station:wmo:42047:1,2003-04-02T23:09:00Z,27.8966,-93.5973,24.0,11144222 
TABS,ioos:station:wmo:42047:1,2003-04-03T02:09:00Z,27.8966,-93.5973,23.8,11144222 
TABS,ioos:station:wmo:42047:1,2003-04-03T07:39:00Z,27.8966,-93.5973,23.7,11144222 
TABS,ioos:station:wmo:42047:1,2003-04-03T08:09:00Z,27.8966,-93.5973,23.7,11144222 
TABS,ioos:station:wmo:42047:1,2003-04-03T12:09:00Z,27.8966,-93.5973,23.7,11144222 
TABS,ioos:station:wmo:42047:1,2003-04-03T15:39:00Z,27.8966,-93.5973,24.2,11144222 
TABS,ioos:station:wmo:42047:1,2003-04-03T17:09:00Z,27.8966,-93.5973,24.3,11144222 
TABS,ioos:station:wmo:42047:1,2003-04-03T21:39:00Z,27.8966,-93.5973,24.5,11144222 
TABS,ioos:station:wmo:42047:1,2003-04-03T23:09:00Z,27.8966,-93.5973,24.4,11144222 
TABS,ioos:station:wmo:42047:1,2003-04-03T23:39:00Z,27.8966,-93.5973,24.3,11144222 
TABS,ioos:station:wmo:42047:1,2003-04-04T00:09:00Z,27.8966,-93.5973,24.3,11144222 
TABS,ioos:station:wmo:42047:1,2003-04-04T00:39:00Z,27.8966,-93.5973,24.2,11144222 
TABS,ioos:station:wmo:42047:1,2003-04-04T01:09:00Z,27.8966,-93.5973,24.2,11144222 
TABS,ioos:station:wmo:42047:1,2003-04-04T01:39:00Z,27.8966,-93.5973,24.2,11144222 
TABS,ioos:station:wmo:42047:1,2003-04-04T02:09:00Z,27.8966,-93.5973,24.1,11144222 
TABS,ioos:station:wmo:42047:1,2003-04-04T03:39:00Z,27.8966,-93.5973,24.2,11144222 
TABS,ioos:station:wmo:42047:1,2003-04-04T04:09:00Z,27.8966,-93.5973,24.2,11144222 
TABS,ioos:station:wmo:42047:1,2003-04-04T05:39:00Z,27.8966,-93.5973,24.2,11144222 
TABS,ioos:station:wmo:42047:1,2003-04-04T06:09:00Z,27.8966,-93.5973,24.1,11144222 
TABS,ioos:station:wmo:42047:1,2003-04-04T06:39:00Z,27.8966,-93.5973,24.0,11144222 
TABS,ioos:station:wmo:42047:1,2003-04-04T08:09:00Z,27.8966,-93.5973,23.9,11144222 
TABS,ioos:station:wmo:42047:1,2003-04-04T09:09:00Z,27.8966,-93.5973,23.8,11144222 
TABS,ioos:station:wmo:42047:1,2003-04-04T10:39:00Z,27.8966,-93.5973,23.6,11144222 
TABS,ioos:station:wmo:42047:1,2003-04-04T12:09:00Z,27.8966,-93.5973,23.8,11144222 
TABS,ioos:station:wmo:42047:1,2003-04-04T12:39:00Z,27.8966,-93.5973,23.9,11144222 
TABS,ioos:station:wmo:42047:1,2003-04-04T14:39:00Z,27.8966,-93.5973,24.0,11144222 
TABS,ioos:station:wmo:42047:1,2003-04-04T16:09:00Z,27.8966,-93.5973,24.3,11144222 
TABS,ioos:station:wmo:42047:1,2003-04-04T17:09:00Z,27.8966,-93.5973,24.3,11144222 
TABS,ioos:station:wmo:42047:1,2003-04-04T17:39:00Z,27.8966,-93.5973,24.2,11144222 
TABS,ioos:station:wmo:42047:1,2003-04-04T19:39:00Z,27.8966,-93.5973,24.4,11144222 
TABS,ioos:station:wmo:42047:1,2003-04-04T20:09:00Z,27.8966,-93.5973,24.4,11144222 
TABS,ioos:station:wmo:42047:1,2003-04-04T21:09:00Z,27.8966,-93.5973,24.4,11144222 
TABS,ioos:station:wmo:42047:1,2003-04-04T22:09:00Z,27.8966,-93.5973,24.3,11144222 
TABS,ioos:station:wmo:42047:1,2003-04-04T23:09:00Z,27.8966,-93.5973,24.3,11144222 
TABS,ioos:station:wmo:42047:1,2003-04-05T00:09:00Z,27.8966,-93.5973,24.3,11144222 
TABS,ioos:station:wmo:42047:1,2003-04-05T01:09:00Z,27.8966,-93.5973,24.3,11144222 
TABS,ioos:station:wmo:42047:1,2003-04-05T05:39:00Z,27.8966,-93.5973,24.1,11144222 
TABS,ioos:station:wmo:42047:1,2003-04-05T07:09:00Z,27.8966,-93.5973,24.2,11144222 
TABS,ioos:station:wmo:42047:1,2003-04-05T09:09:00Z,27.8966,-93.5973,24.0,11144222 
TABS,ioos:station:wmo:42047:1,2003-04-05T09:39:00Z,27.8966,-93.5973,24.0,11144222 
TABS,ioos:station:wmo:42047:1,2003-04-05T11:09:00Z,27.8966,-93.5973,24.0,11144222 
TABS,ioos:station:wmo:42047:1,2003-04-05T12:39:00Z,27.8966,-93.5973,24.0,11144222 
TABS,ioos:station:wmo:42047:1,2003-04-05T15:09:00Z,27.8966,-93.5973,24.6,11144222 
TABS,ioos:station:wmo:42047:1,2003-04-05T15:39:00Z,27.8966,-93.5973,24.7,11144222 
TABS,ioos:station:wmo:42047:1,2003-04-05T16:39:00Z,27.8966,-93.5973,24.7,11144222 
TABS,ioos:station:wmo:42047:1,2003-04-05T18:39:00Z,27.8966,-93.5973,24.6,11144222 
TABS,ioos:station:wmo:42047:1,2003-04-05T19:09:00Z,27.8966,-93.5973,24.6,11144222 
TABS,ioos:station:wmo:42047:1,2003-04-05T19:39:00Z,27.8966,-93.5973,24.5,11144222 
TABS,ioos:station:wmo:42047:1,2003-04-05T20:09:00Z,27.8966,-93.5973,24.5,11144222 
TABS,ioos:station:wmo:42047:1,2003-04-05T21:09:00Z,27.8966,-93.5973,24.4,11144222 
TABS,ioos:station:wmo:42047:1,2003-04-05T21:39:00Z,27.8966,-93.5973,24.4,11144222 
TABS,ioos:station:wmo:42047:1,2003-04-05T22:09:00Z,27.8966,-93.5973,24.3,11144222 
TABS,ioos:station:wmo:42047:1,2003-04-05T23:09:00Z,27.8966,-93.5973,24.4,11144222 
TABS,ioos:station:wmo:42047:1,2003-04-06T00:09:00Z,27.8966,-93.5973,24.3,11144222 
TABS,ioos:station:wmo:42047:1,2003-04-06T00:39:00Z,27.8966,-93.5973,24.4,11144222 
TABS,ioos:station:wmo:42047:1,2003-04-06T01:39:00Z,27.8966,-93.5973,24.4,11144222 
TABS,ioos:station:wmo:42047:1,2003-04-06T02:09:00Z,27.8966,-93.5973,24.4,11144222 
TABS,ioos:station:wmo:42047:1,2003-04-06T02:39:00Z,27.8966,-93.5973,24.6,11144222 
TABS,ioos:station:wmo:42047:1,2003-04-06T03:09:00Z,27.8966,-93.5973,24.7,11144222 
TABS,ioos:station:wmo:42047:1,2003-04-06T04:39:00Z,27.8966,-93.5973,24.7,11144222 
TABS,ioos:station:wmo:42047:1,2003-04-06T05:09:00Z,27.8966,-93.5973,24.6,11144222 
TABS,ioos:station:wmo:42047:1,2003-04-06T06:39:00Z,27.8966,-93.5973,24.6,11144222 
TABS,ioos:station:wmo:42047:1,2003-04-06T09:39:00Z,27.8966,-93.5973,24.6,11144222 
TABS,ioos:station:wmo:42047:1,2003-04-06T12:39:00Z,27.8966,-93.5973,24.9,11144222 
TABS,ioos:station:wmo:42047:1,2003-04-06T13:39:00Z,27.8966,-93.5973,24.9,11144222 
TABS,ioos:station:wmo:42047:1,2003-04-06T15:39:00Z,27.8966,-93.5973,25.1,11144222 
TABS,ioos:station:wmo:42047:1,2003-04-06T16:09:00Z,27.8966,-93.5973,25.2,11144222 
TABS,ioos:station:wmo:42047:1,2003-04-06T19:09:00Z,27.8966,-93.5973,25.3,11144222 
TABS,ioos:station:wmo:42047:1,2003-04-06T20:09:00Z,27.8966,-93.5973,25.2,11144222 
TABS,ioos:station:wmo:42047:1,2003-04-06T21:39:00Z,27.8966,-93.5973,25.0,11144222 
TABS,ioos:station:wmo:42047:1,2003-04-06T22:09:00Z,27.8966,-93.5973,24.9,11144222 
TABS,ioos:station:wmo:42047:1,2003-04-07T01:09:00Z,27.8966,-93.5973,24.6,11144222 
TABS,ioos:station:wmo:42047:1,2003-04-07T02:09:00Z,27.8966,-93.5973,24.6,11144222 
TABS,ioos:station:wmo:42047:1,2003-04-07T03:39:00Z,27.8966,-93.5973,24.4,11144222 
TABS,ioos:station:wmo:42047:1,2003-04-07T04:09:00Z,27.8966,-93.5973,24.4,11144222 
TABS,ioos:station:wmo:42047:1,2003-04-07T04:39:00Z,27.8966,-93.5973,24.4,11144222 
TABS,ioos:station:wmo:42047:1,2003-04-07T05:09:00Z,27.8966,-93.5973,24.5,11144222 
TABS,ioos:station:wmo:42047:1,2003-04-07T07:39:00Z,27.8966,-93.5973,24.1,11144222 
TABS,ioos:station:wmo:42047:1,2003-04-07T09:09:00Z,27.8966,-93.5973,23.9,11144222 
TABS,ioos:station:wmo:42047:1,2003-04-07T10:09:00Z,27.8966,-93.5973,24.0,11144222 
TABS,ioos:station:wmo:42047:1,2003-04-07T11:39:00Z,27.8966,-93.5973,24.2,11144222 
TABS,ioos:station:wmo:42047:1,2003-04-07T15:09:00Z,27.8966,-93.5973,24.5,11144222 
TABS,ioos:station:wmo:42047:1,2003-04-07T16:39:00Z,27.8966,-93.5973,24.9,11144222 
TABS,ioos:station:wmo:42047:1,2003-04-07T21:39:00Z,27.8966,-93.5973,25.5,11144222 
TABS,ioos:station:wmo:42047:1,2003-04-07T22:39:00Z,27.8966,-93.5973,25.2,11144222 
TABS,ioos:station:wmo:42047:1,2003-04-08T00:39:00Z,27.8966,-93.5973,25.3,11144222 
TABS,ioos:station:wmo:42047:1,2003-04-08T01:09:00Z,27.8966,-93.5973,25.2,11144222 
TABS,ioos:station:wmo:42047:1,2003-04-08T01:39:00Z,27.8966,-93.5973,25.1,11144222 
TABS,ioos:station:wmo:42047:1,2003-04-08T03:09:00Z,27.8966,-93.5973,24.8,11144222 
TABS,ioos:station:wmo:42047:1,2003-04-08T03:39:00Z,27.8966,-93.5973,24.7,11144222 
TABS,ioos:station:wmo:42047:1,2003-04-08T05:39:00Z,27.8966,-93.5973,24.8,11144222 
TABS,ioos:station:wmo:42047:1,2003-04-08T06:39:00Z,27.8966,-93.5973,24.8,11144222 
TABS,ioos:station:wmo:42047:1,2003-04-08T07:09:00Z,27.8966,-93.5973,24.8,11144222 
TABS,ioos:station:wmo:42047:1,2003-04-08T08:09:00Z,27.8966,-93.5973,24.7,11144222 
TABS,ioos:station:wmo:42047:1,2003-04-08T09:39:00Z,27.8966,-93.5973,24.4,11144222 
TABS,ioos:station:wmo:42047:1,2003-04-08T10:39:00Z,27.8966,-93.5973,24.6,11144222 
TABS,ioos:station:wmo:42047:1,2003-04-08T15:09:00Z,27.8966,-93.5973,23.4,11144222 
TABS,ioos:station:wmo:42047:1,2003-04-08T16:09:00Z,27.8966,-93.5973,22.9,11144222 
TABS,ioos:station:wmo:42047:1,2003-04-08T18:09:00Z,27.8966,-93.5973,22.5,11144222 
TABS,ioos:station:wmo:42047:1,2003-04-08T19:39:00Z,27.8966,-93.5973,21.5,11144222 
TABS,ioos:station:wmo:42047:1,2003-04-09T01:39:00Z,27.8966,-93.5973,21.8,11144222 
TABS,ioos:station:wmo:42047:1,2003-04-09T03:09:00Z,27.8966,-93.5973,22.0,11144222 
TABS,ioos:station:wmo:42047:1,2003-04-09T03:39:00Z,27.8966,-93.5973,21.8,11144222 
TABS,ioos:station:wmo:42047:1,2003-04-09T04:39:00Z,27.8966,-93.5973,21.3,11144222 
TABS,ioos:station:wmo:42047:1,2003-04-09T06:39:00Z,27.8966,-93.5973,19.5,11144222 
TABS,ioos:station:wmo:42047:1,2003-04-09T08:09:00Z,27.8966,-93.5973,18.4,11144222 
TABS,ioos:station:wmo:42047:1,2003-04-09T08:39:00Z,27.8966,-93.5973,17.9,11144222 
TABS,ioos:station:wmo:42047:1,2003-04-09T09:39:00Z,27.8966,-93.5973,17.0,11144222 
TABS,ioos:station:wmo:42047:1,2003-04-09T12:09:00Z,27.8966,-93.5973,15.0,11144222 
TABS,ioos:station:wmo:42047:1,2003-04-09T15:09:00Z,27.8966,-93.5973,13.8,11144222 
TABS,ioos:station:wmo:42047:1,2003-04-09T17:39:00Z,27.8966,-93.5973,14.0,11144222 
TABS,ioos:station:wmo:42047:1,2003-04-09T21:09:00Z,27.8966,-93.5973,15.7,11144222 
TABS,ioos:station:wmo:42047:1,2003-04-09T23:09:00Z,27.8966,-93.5973,17.0,11144222 
TABS,ioos:station:wmo:42047:1,2003-04-10T01:09:00Z,27.8966,-93.5973,18.1,11144222 
TABS,ioos:station:wmo:42047:1,2003-04-10T03:09:00Z,27.8966,-93.5973,19.2,11144222 
TABS,ioos:station:wmo:42047:1,2003-04-10T03:39:00Z,27.8966,-93.5973,19.2,11144222 
TABS,ioos:station:wmo:42047:1,2003-04-10T04:39:00Z,27.8966,-93.5973,19.0,11144222 
TABS,ioos:station:wmo:42047:1,2003-04-10T08:09:00Z,27.8966,-93.5973,16.6,11144222 
TABS,ioos:station:wmo:42047:1,2003-04-10T08:39:00Z,27.8966,-93.5973,16.6,11144222 
TABS,ioos:station:wmo:42047:1,2003-04-10T09:09:00Z,27.8966,-93.5973,16.6,11144222 
TABS,ioos:station:wmo:42047:1,2003-04-10T10:09:00Z,27.8966,-93.5973,16.6,11144222 
TABS,ioos:station:wmo:42047:1,2003-04-10T10:39:00Z,27.8966,-93.5973,16.7,11144222 
TABS,ioos:station:wmo:42047:1,2003-04-10T13:39:00Z,27.8966,-93.5973,17.5,11144222 
TABS,ioos:station:wmo:42047:1,2003-04-10T14:39:00Z,27.8966,-93.5973,17.5,11144222 
TABS,ioos:station:wmo:42047:1,2003-04-10T16:09:00Z,27.8966,-93.5973,17.7,11144222 
TABS,ioos:station:wmo:42047:1,2003-04-10T19:09:00Z,27.8966,-93.5973,18.3,11144222 
TABS,ioos:station:wmo:42047:1,2003-04-10T19:39:00Z,27.8966,-93.5973,18.4,11144222 
TABS,ioos:station:wmo:42047:1,2003-04-10T20:09:00Z,27.8966,-93.5973,18.7,11144222 
TABS,ioos:station:wmo:42047:1,2003-04-10T23:09:00Z,27.8966,-93.5973,19.3,11144222 
TABS,ioos:station:wmo:42047:1,2003-04-10T23:39:00Z,27.8966,-93.5973,19.4,11144222 
TABS,ioos:station:wmo:42047:1,2003-04-11T00:09:00Z,27.8966,-93.5973,19.4,11144222 
TABS,ioos:station:wmo:42047:1,2003-04-11T02:39:00Z,27.8966,-93.5973,20.2,11144222 
TABS,ioos:station:wmo:42047:1,2003-04-11T05:09:00Z,27.8966,-93.5973,20.6,11144222 
TABS,ioos:station:wmo:42047:1,2003-04-11T05:39:00Z,27.8966,-93.5973,20.7,11144222 
TABS,ioos:station:wmo:42047:1,2003-04-11T07:09:00Z,27.8966,-93.5973,20.8,11144222 
TABS,ioos:station:wmo:42047:1,2003-04-11T10:09:00Z,27.8966,-93.5973,21.3,11144222 
TABS,ioos:station:wmo:42047:1,2003-04-11T10:39:00Z,27.8966,-93.5973,21.4,11144222 
TABS,ioos:station:wmo:42047:1,2003-04-11T11:09:00Z,27.8966,-93.5973,21.5,11144222 
TABS,ioos:station:wmo:42047:1,2003-04-11T11:39:00Z,27.8966,-93.5973,21.4,11144222 
TABS,ioos:station:wmo:42047:1,2003-04-11T12:09:00Z,27.8966,-93.5973,21.6,11144222 
TABS,ioos:station:wmo:42047:1,2003-04-11T13:09:00Z,27.8966,-93.5973,21.7,11144222 
TABS,ioos:station:wmo:42047:1,2003-04-11T13:39:00Z,27.8966,-93.5973,21.7,11144222 
TABS,ioos:station:wmo:42047:1,2003-04-11T15:09:00Z,27.8966,-93.5973,21.6,11144222 
TABS,ioos:station:wmo:42047:1,2003-04-11T16:09:00Z,27.8966,-93.5973,21.8,11144222 
TABS,ioos:station:wmo:42047:1,2003-04-11T17:39:00Z,27.8966,-93.5973,21.9,11144222 
TABS,ioos:station:wmo:42047:1,2003-04-11T20:39:00Z,27.8966,-93.5973,21.7,11144222 
TABS,ioos:station:wmo:42047:1,2003-04-11T22:09:00Z,27.8966,-93.5973,21.6,11144222 
TABS,ioos:station:wmo:42047:1,2003-04-11T22:39:00Z,27.8966,-93.5973,21.6,11144222 
TABS,ioos:station:wmo:42047:1,2003-04-11T23:39:00Z,27.8966,-93.5973,21.7,11144222 
TABS,ioos:station:wmo:42047:1,2003-04-12T00:39:00Z,27.8966,-93.5973,21.8,11144222 
TABS,ioos:station:wmo:42047:1,2003-04-12T01:09:00Z,27.8966,-93.5973,21.8,11144222 
TABS,ioos:station:wmo:42047:1,2003-04-12T02:39:00Z,27.8966,-93.5973,22.1,11144222 
TABS,ioos:station:wmo:42047:1,2003-04-12T04:09:00Z,27.8966,-93.5973,22.0,11144222 
TABS,ioos:station:wmo:42047:1,2003-04-12T05:09:00Z,27.8966,-93.5973,22.1,11144222 
TABS,ioos:station:wmo:42047:1,2003-04-12T06:39:00Z,27.8966,-93.5973,22.1,11144222 
TABS,ioos:station:wmo:42047:1,2003-04-12T07:09:00Z,27.8966,-93.5973,22.0,11144222 
TABS,ioos:station:wmo:42047:1,2003-04-12T08:09:00Z,27.8966,-93.5973,21.9,11144222 
TABS,ioos:station:wmo:42047:1,2003-04-12T08:39:00Z,27.8966,-93.5973,21.9,11144222 
TABS,ioos:station:wmo:42047:1,2003-04-12T13:09:00Z,27.8966,-93.5973,21.6,11144222 
TABS,ioos:station:wmo:42047:1,2003-04-12T14:09:00Z,27.8966,-93.5973,21.7,11144222 
TABS,ioos:station:wmo:42047:1,2003-04-12T14:39:00Z,27.8966,-93.5973,21.9,11144222 
TABS,ioos:station:wmo:42047:1,2003-04-12T15:09:00Z,27.8966,-93.5973,21.9,11144222 
TABS,ioos:station:wmo:42047:1,2003-04-12T15:39:00Z,27.8966,-93.5973,21.9,11144222 
TABS,ioos:station:wmo:42047:1,2003-04-12T16:09:00Z,27.8966,-93.5973,22.0,11144222 
TABS,ioos:station:wmo:42047:1,2003-04-12T16:39:00Z,27.8966,-93.5973,21.9,11144222 
TABS,ioos:station:wmo:42047:1,2003-04-12T17:09:00Z,27.8966,-93.5973,21.9,11144222 
TABS,ioos:station:wmo:42047:1,2003-04-12T18:39:00Z,27.8966,-93.5973,22.0,11144222 
TABS,ioos:station:wmo:42047:1,2003-04-12T19:39:00Z,27.8966,-93.5973,22.2,11144222 
TABS,ioos:station:wmo:42047:1,2003-04-12T22:09:00Z,27.8966,-93.5973,22.6,11144222 
TABS,ioos:station:wmo:42047:1,2003-04-12T23:09:00Z,27.8966,-93.5973,22.7,11144222 
TABS,ioos:station:wmo:42047:1,2003-04-12T23:39:00Z,27.8966,-93.5973,22.7,11144222 
TABS,ioos:station:wmo:42047:1,2003-04-13T00:09:00Z,27.8966,-93.5973,22.9,11144222 
TABS,ioos:station:wmo:42047:1,2003-04-13T00:39:00Z,27.8966,-93.5973,22.6,11144222 
TABS,ioos:station:wmo:42047:1,2003-04-13T01:09:00Z,27.8966,-93.5973,22.6,11144222 
TABS,ioos:station:wmo:42047:1,2003-04-13T01:39:00Z,27.8966,-93.5973,22.7,11144222 
TABS,ioos:station:wmo:42047:1,2003-04-13T03:39:00Z,27.8966,-93.5973,22.5,11144222 
TABS,ioos:station:wmo:42047:1,2003-04-13T04:39:00Z,27.8966,-93.5973,22.4,11144222 
TABS,ioos:station:wmo:42047:1,2003-04-13T05:09:00Z,27.8966,-93.5973,22.3,11144222 
TABS,ioos:station:wmo:42047:1,2003-04-13T06:09:00Z,27.8966,-93.5973,22.4,11144222 
TABS,ioos:station:wmo:42047:1,2003-04-13T06:39:00Z,27.8966,-93.5973,22.4,11144222 
TABS,ioos:station:wmo:42047:1,2003-04-13T07:39:00Z,27.8966,-93.5973,22.3,11144222 
TABS,ioos:station:wmo:42047:1,2003-04-13T09:09:00Z,27.8966,-93.5973,22.1,11144222 
TABS,ioos:station:wmo:42047:1,2003-04-13T11:09:00Z,27.8966,-93.5973,22.1,11144222 
TABS,ioos:station:wmo:42047:1,2003-04-13T12:09:00Z,27.8966,-93.5973,22.0,11144222 
TABS,ioos:station:wmo:42047:1,2003-04-13T12:39:00Z,27.8966,-93.5973,23.2,11144222 
TABS,ioos:station:wmo:42047:1,2003-04-13T13:09:00Z,27.8966,-93.5973,22.8,11144222 
TABS,ioos:station:wmo:42047:1,2003-04-13T13:39:00Z,27.8966,-93.5973,22.8,11144222 
TABS,ioos:station:wmo:42047:1,2003-04-13T14:39:00Z,27.8966,-93.5973,23.6,11144222 
TABS,ioos:station:wmo:42047:1,2003-04-13T15:09:00Z,27.8966,-93.5973,23.7,11144222 
TABS,ioos:station:wmo:42047:1,2003-04-13T15:39:00Z,27.8966,-93.5973,23.0,11144222 
TABS,ioos:station:wmo:42047:1,2003-04-13T17:09:00Z,27.8966,-93.5973,22.8,11144222 
TABS,ioos:station:wmo:42047:1,2003-04-13T19:39:00Z,27.8966,-93.5973,22.9,11144222 
TABS,ioos:station:wmo:42047:1,2003-04-13T20:09:00Z,27.8966,-93.5973,23.1,11144222 
TABS,ioos:station:wmo:42047:1,2003-04-13T20:39:00Z,27.8966,-93.5973,23.2,11144222 
TABS,ioos:station:wmo:42047:1,2003-04-13T21:39:00Z,27.8966,-93.5973,23.4,11144222 
TABS,ioos:station:wmo:42047:1,2003-04-13T22:09:00Z,27.8966,-93.5973,23.5,11144222 
TABS,ioos:station:wmo:42047:1,2003-04-13T22:39:00Z,27.8966,-93.5973,23.5,11144222 
TABS,ioos:station:wmo:42047:1,2003-04-14T00:09:00Z,27.8966,-93.5973,23.6,11144222 
TABS,ioos:station:wmo:42047:1,2003-04-14T00:39:00Z,27.8966,-93.5973,23.4,11144222 
TABS,ioos:station:wmo:42047:1,2003-04-14T01:39:00Z,27.8966,-93.5973,23.3,11144222 
TABS,ioos:station:wmo:42047:1,2003-04-14T03:09:00Z,27.8966,-93.5973,23.5,11144222 
TABS,ioos:station:wmo:42047:1,2003-04-14T03:39:00Z,27.8966,-93.5973,23.5,11144222 
TABS,ioos:station:wmo:42047:1,2003-04-14T05:09:00Z,27.8966,-93.5973,23.3,11144222 
TABS,ioos:station:wmo:42047:1,2003-04-14T05:39:00Z,27.8966,-93.5973,23.2,11144222 
TABS,ioos:station:wmo:42047:1,2003-04-14T06:09:00Z,27.8966,-93.5973,23.2,11144222 
TABS,ioos:station:wmo:42047:1,2003-04-14T07:09:00Z,27.8966,-93.5973,23.0,11144222 
TABS,ioos:station:wmo:42047:1,2003-04-14T10:09:00Z,27.8966,-93.5973,22.9,11144222 
TABS,ioos:station:wmo:42047:1,2003-04-14T10:39:00Z,27.8966,-93.5973,22.9,11144222 
TABS,ioos:station:wmo:42047:1,2003-04-14T12:39:00Z,27.8966,-93.5973,23.2,11144222 
TABS,ioos:station:wmo:42047:1,2003-04-14T14:39:00Z,27.8966,-93.5973,23.5,11144222 
TABS,ioos:station:wmo:42047:1,2003-04-14T15:39:00Z,27.8966,-93.5973,23.6,11144222 
TABS,ioos:station:wmo:42047:1,2003-04-14T16:39:00Z,27.8966,-93.5973,23.7,11144222 
TABS,ioos:station:wmo:42047:1,2003-04-14T17:39:00Z,27.8966,-93.5973,23.7,11144222 
TABS,ioos:station:wmo:42047:1,2003-04-14T18:09:00Z,27.8966,-93.5973,23.7,11144222 
TABS,ioos:station:wmo:42047:1,2003-04-14T18:39:00Z,27.8966,-93.5973,23.6,11144222 
TABS,ioos:station:wmo:42047:1,2003-04-14T20:39:00Z,27.8966,-93.5973,24.0,11144222 
TABS,ioos:station:wmo:42047:1,2003-04-15T00:39:00Z,27.8966,-93.5973,23.8,11144222 
TABS,ioos:station:wmo:42047:1,2003-04-15T02:09:00Z,27.8966,-93.5973,23.8,11144222 
TABS,ioos:station:wmo:42047:1,2003-04-15T03:39:00Z,27.8966,-93.5973,23.8,11144222 
TABS,ioos:station:wmo:42047:1,2003-04-15T04:39:00Z,27.8966,-93.5973,23.7,11144222 
TABS,ioos:station:wmo:42047:1,2003-04-15T07:39:00Z,27.8966,-93.5973,23.5,11144222 
TABS,ioos:station:wmo:42047:1,2003-04-15T08:09:00Z,27.8966,-93.5973,23.5,11144222 
TABS,ioos:station:wmo:42047:1,2003-04-15T12:09:00Z,27.8966,-93.5973,23.6,11144222 
TABS,ioos:station:wmo:42047:1,2003-04-15T22:09:00Z,27.8966,-93.5973,24.5,11144222 
TABS,ioos:station:wmo:42047:1,2003-04-16T01:39:00Z,27.8966,-93.5973,24.2,11144222 
TABS,ioos:station:wmo:42047:1,2003-04-16T04:09:00Z,27.8966,-93.5973,24.1,11144222 
TABS,ioos:station:wmo:42047:1,2003-04-16T05:39:00Z,27.8966,-93.5973,24.0,11144222 
TABS,ioos:station:wmo:42047:1,2003-04-16T06:39:00Z,27.8966,-93.5973,23.9,11144222 
TABS,ioos:station:wmo:42047:1,2003-04-16T07:09:00Z,27.8966,-93.5973,23.8,11144222 
TABS,ioos:station:wmo:42047:1,2003-04-16T09:09:00Z,27.8966,-93.5973,23.7,11144222 
TABS,ioos:station:wmo:42047:1,2003-04-16T11:39:00Z,27.8966,-93.5973,23.7,11144222 
TABS,ioos:station:wmo:42047:1,2003-04-16T13:09:00Z,27.8966,-93.5973,24.0,11144222 
TABS,ioos:station:wmo:42047:1,2003-04-16T16:09:00Z,27.8966,-93.5973,24.2,11144222 
TABS,ioos:station:wmo:42047:1,2003-04-16T18:09:00Z,27.8966,-93.5973,24.3,11144222 
TABS,ioos:station:wmo:42047:1,2003-04-16T21:39:00Z,27.8966,-93.5973,24.5,11144222 
TABS,ioos:station:wmo:42047:1,2003-04-17T01:39:00Z,27.8966,-93.5973,24.2,11144222 
TABS,ioos:station:wmo:42047:1,2003-04-17T07:09:00Z,27.8966,-93.5973,23.8,11144222 
TABS,ioos:station:wmo:42047:1,2003-04-17T09:09:00Z,27.8966,-93.5973,23.7,11144222 
TABS,ioos:station:wmo:42047:1,2003-04-17T10:09:00Z,27.8966,-93.5973,23.7,11144222 
TABS,ioos:station:wmo:42047:1,2003-04-17T10:39:00Z,27.8966,-93.5973,23.7,11144222 
TABS,ioos:station:wmo:42047:1,2003-04-17T12:39:00Z,27.8966,-93.5973,23.8,11144222 
TABS,ioos:station:wmo:42047:1,2003-04-17T13:09:00Z,27.8966,-93.5973,23.9,11144222 
TABS,ioos:station:wmo:42047:1,2003-04-17T13:39:00Z,27.8966,-93.5973,24.0,11144222 
TABS,ioos:station:wmo:42047:1,2003-04-17T15:39:00Z,27.8966,-93.5973,24.4,11144222 
TABS,ioos:station:wmo:42047:1,2003-04-17T16:09:00Z,27.8966,-93.5973,24.4,11144222 
TABS,ioos:station:wmo:42047:1,2003-04-17T16:39:00Z,27.8966,-93.5973,24.4,11144222 
TABS,ioos:station:wmo:42047:1,2003-04-17T17:09:00Z,27.8966,-93.5973,24.5,11144222 
TABS,ioos:station:wmo:42047:1,2003-04-17T18:09:00Z,27.8966,-93.5973,24.6,11144222 
TABS,ioos:station:wmo:42047:1,2003-04-17T22:09:00Z,27.8966,-93.5973,23.9,11144222 
TABS,ioos:station:wmo:42047:1,2003-04-17T23:09:00Z,27.8966,-93.5973,23.9,11144222 
TABS,ioos:station:wmo:42047:1,2003-04-18T00:39:00Z,27.8966,-93.5973,23.8,11144222 
TABS,ioos:station:wmo:42047:1,2003-04-18T03:09:00Z,27.8966,-93.5973,23.2,11144222 
TABS,ioos:station:wmo:42047:1,2003-04-18T04:09:00Z,27.8966,-93.5973,23.2,11144222 
TABS,ioos:station:wmo:42047:1,2003-04-18T05:09:00Z,27.8966,-93.5973,23.4,11144222 
TABS,ioos:station:wmo:42047:1,2003-04-18T09:39:00Z,27.8966,-93.5973,23.9,11144222 
TABS,ioos:station:wmo:42047:1,2003-04-18T10:09:00Z,27.8966,-93.5973,23.8,11144222 
TABS,ioos:station:wmo:42047:1,2003-04-18T12:09:00Z,27.8966,-93.5973,23.9,11144222 
TABS,ioos:station:wmo:42047:1,2003-04-18T13:09:00Z,27.8966,-93.5973,24.2,11144222 
TABS,ioos:station:wmo:42047:1,2003-04-18T14:39:00Z,27.8966,-93.5973,24.3,11144222 